E22ZMG-4 Weather Reports


time (UTC)temp
F
wind
direction
speed
knots
gust
knots
rain 1hr
in
rain 24hr
in
rain mn
in
humidity
%
barometer
mb
20260505000533 87 0 0.0 0.0 0.00 0.00 0.00 51 978.0
20260504235509 87 0 0.0 0.0 0.00 0.00 0.00 51 978.0
20260504234444 87 0 0.0 0.0 0.00 0.00 0.00 51 978.0
20260504233420 87 0 0.0 0.0 0.00 0.00 0.00 51 978.0
20260504232356 87 0 0.0 0.0 0.00 0.00 0.00 51 978.0
20260504231332 87 0 0.0 0.0 0.00 0.00 0.00 51 978.0
20260504230308 87 0 0.0 0.0 0.00 0.00 0.00 51 977.0
20260504225243 87 0 0.0 0.0 0.00 0.00 0.00 50 977.0
20260504224219 87 0 0.0 0.0 0.00 0.00 0.00 50 977.0
20260504223155 87 0 0.0 0.0 0.00 0.00 0.00 50 977.0
20260504222131 87 0 0.0 0.0 0.00 0.00 0.00 50 977.0
20260504221107 87 0 0.0 0.0 0.00 0.00 0.00 50 977.0
20260504220042 87 0 0.0 0.0 0.00 0.00 0.00 49 977.0
20260504215018 87 0 0.0 0.0 0.00 0.00 0.00 49 977.0
20260504213954 88 0 0.0 0.0 0.00 0.00 0.00 49 977.0
20260504212929 88 0 0.0 0.0 0.00 0.00 0.00 49 977.0
20260504211904 88 0 0.0 0.0 0.00 0.00 0.00 48 977.0
20260504210839 88 0 0.0 0.0 0.00 0.00 0.00 48 977.0
20260504205814 88 0 0.0 0.0 0.00 0.00 0.00 48 977.0
20260504204750 88 0 0.0 0.0 0.00 0.00 0.00 48 977.0
20260504203725 88 0 0.0 0.0 0.00 0.00 0.00 48 977.0
20260504202700 88 0 0.0 0.0 0.00 0.00 0.00 48 977.0
20260504201635 88 0 0.0 0.0 0.00 0.00 0.00 47 977.0
20260504200610 88 0 0.0 0.0 0.00 0.00 0.00 47 977.0
20260504195545 88 0 0.0 0.0 0.00 0.00 0.00 47 977.0
20260504194520 88 0 0.0 0.0 0.00 0.00 0.00 47 978.0
20260504193455 88 0 0.0 0.0 0.00 0.00 0.00 47 978.0
20260504192430 88 0 0.0 0.0 0.00 0.00 0.00 47 978.0
20260504191405 89 0 0.0 0.0 0.00 0.00 0.00 46 978.0
20260504190341 89 0 0.0 0.0 0.00 0.00 0.00 46 978.0
20260504185317 89 0 0.0 0.0 0.00 0.00 0.00 46 978.0
20260504184252 89 0 0.0 0.0 0.00 0.00 0.00 46 978.0
20260504183227 89 0 0.0 0.0 0.00 0.00 0.00 46 978.0
20260504182202 89 0 0.0 0.0 0.00 0.00 0.00 45 978.0
20260504181138 89 0 0.0 0.0 0.00 0.00 0.00 45 978.0
20260504180114 89 0 0.0 0.0 0.00 0.00 0.00 45 978.0
20260504175049 89 0 0.0 0.0 0.00 0.00 0.00 45 978.0
20260504174024 89 0 0.0 0.0 0.00 0.00 0.00 44 978.0
20260504172959 90 0 0.0 0.0 0.00 0.00 0.00 44 978.0
20260504171935 90 0 0.0 0.0 0.00 0.00 0.00 44 978.0
20260504170910 90 0 0.0 0.0 0.00 0.00 0.00 43 978.0
20260504150416 90 0 0.0 0.0 0.00 0.00 0.00 41 976.0
20260504141214 91 0 0.0 0.0 0.00 0.00 0.00 39 975.0
20260504140150 91 0 0.0 0.0 0.00 0.00 0.00 39 975.0
20260504110452 89 0 0.0 0.0 0.00 0.00 0.00 36 972.0
20260504100223 82 0 0.0 0.0 0.00 0.00 0.00 38 971.0
20260504081818 81 0 0.0 0.0 0.00 0.00 0.00 37 973.0
20260504080754 81 0 0.0 0.0 0.00 0.00 0.00 38 973.0
20260504045006 82 0 0.0 0.0 0.00 0.00 0.00 35 976.0
20260504043942 78 0 0.0 0.0 0.00 0.00 0.00 37 977.0
20260504042917 78 0 0.0 0.0 0.00 0.00 0.00 37 977.0
20260504041852 78 0 0.0 0.0 0.00 0.00 0.00 37 977.0
20260504040828 78 0 0.0 0.0 0.00 0.00 0.00 37 977.0
20260504035803 79 0 0.0 0.0 0.00 0.00 0.00 37 977.0
20260504034739 79 0 0.0 0.0 0.00 0.00 0.00 38 977.0
20260504033715 79 0 0.0 0.0 0.00 0.00 0.00 39 977.0
20260504032650 79 0 0.0 0.0 0.00 0.00 0.00 38 977.0
20260504031625 79 0 0.0 0.0 0.00 0.00 0.00 37 977.0
20260504030601 80 0 0.0 0.0 0.00 0.00 0.00 37 978.0
20260504025536 80 0 0.0 0.0 0.00 0.00 0.00 37 978.0
20260504024512 81 0 0.0 0.0 0.00 0.00 0.00 38 978.0
20260504023447 81 0 0.0 0.0 0.00 0.00 0.00 39 978.0
20260504022422 82 0 0.0 0.0 0.00 0.00 0.00 38 978.0
20260504021358 83 0 0.0 0.0 0.00 0.00 0.00 41 978.0
20260504020333 84 0 0.0 0.0 0.00 0.00 0.00 45 978.0
20260504015309 84 0 0.0 0.0 0.00 0.00 0.00 46 978.0
20260504014245 84 0 0.0 0.0 0.00 0.00 0.00 48 978.0
20260504013220 83 0 0.0 0.0 0.00 0.00 0.00 40 978.0
20260504012155 83 0 0.0 0.0 0.00 0.00 0.00 40 978.0
20260504011130 84 0 0.0 0.0 0.00 0.00 0.00 40 977.0
20260504010101 86 0 0.0 0.0 0.00 0.00 0.00 43 977.0
20260504005037 89 0 0.0 0.0 0.00 0.00 0.00 46 977.0
20260504004012 88 0 0.0 0.0 0.00 0.00 0.00 47 977.0
20260504002948 88 0 0.0 0.0 0.00 0.00 0.00 47 977.0
20260504001923 87 0 0.0 0.0 0.00 0.00 0.00 47 977.0
20260504000859 87 0 0.0 0.0 0.00 0.00 0.00 47 977.0